SNORRE B OILP current weather conditions

sailwx.info

Wind from 160 at 36 knots

Air temperature 9.0° C
Visibility: greater than 1.2 NM
Dewpoint 8.0° C

Last reported at 2014-Nov-23 03:50 UTC.
Time now 2014-Nov-23 04:53 UTC

Location: N 61°32' E 002°13'.
View on Google Maps.

See reports from other nearby stations

  
Tides and Currents Weather Stations Pressure Air Temp Water Temp Dewpoint Dewpoint Depression Visibility Wind Speed Wind Dir Waves Ship Positions
date/time (UTC)wind fromknots sea level pressurealtimeterstation pressurevisibilityair tempwater tempwave heightnotes
2014-Nov-23 03:50 160 36 1.2 9.0
2014-Nov-23 03:20 160 34 1.3 9.0
2014-Nov-23 02:50 160 39 2.0 9.0
2014-Nov-23 02:20 150 36 1.4 9.0
2014-Nov-23 01:50 150 38 1.5 9.0
2014-Nov-23 01:20 140 39 1.3 8.0 Light rain. Mist.
2014-Nov-23 00:50 140 41 1.6 8.0
2014-Nov-23 00:20 140 38 2.7 8.0 Light rain.
2014-Nov-22 23:50 140 34 1.5 8.0
2014-Nov-22 23:20 140 38 1.4 8.0 Light rain. Mist.
2014-Nov-22 22:50 140 34 2.5 8.0
2014-Nov-22 22:20 140 36 3.2 8.0 Light rain.
2014-Nov-22 21:50 140 31 3.8 7.0 Light rain.
2014-Nov-22 21:20 140 35 3.2 8.0 Light rain.
2014-Nov-22 20:50 140 31 4.3 8.0
2014-Nov-22 20:20 140 30 3.8 7.0 Light rain.
2014-Nov-22 19:50 140 27 3.8 8.0
2014-Nov-22 19:20 140 32 5.4 8.0 Light rain.
2014-Nov-22 18:50 140 27 5.4 8.0
2014-Nov-22 18:20 140 27 gusting 37 5.4 8.0 Light drizzle.
2014-Nov-22 17:50 140 28 5.4 8.0
2014-Nov-22 17:20 140 27 5.4 8.0
2014-Nov-22 16:50 140 25 5.4 8.0
2014-Nov-22 16:20 140 25 5.4 8.0
2014-Nov-22 15:50 140 25 5.4 8.0
2014-Nov-22 15:20 130 25 5.4 8.0
2014-Nov-22 14:50 140 21 5.4 8.0
2014-Nov-22 14:20 130 23 5.4 8.0
2014-Nov-22 13:50 140 21 5.4 8.0
2014-Nov-22 13:20 130 20 5.4 8.0
2014-Nov-22 12:50 140 24 5.4 8.0
2014-Nov-22 12:20 140 23 5.4 8.0
2014-Nov-22 11:50 140 27 5.4 8.0
2014-Nov-22 11:20 140 22 5.4 8.0
2014-Nov-22 10:50 140 24 5.4 8.0
2014-Nov-22 10:20 140 20 5.4 8.0
2014-Nov-22 09:50 140 21 5.4 8.0
2014-Nov-22 09:20 140 25 5.4 8.0
2014-Nov-22 08:50 140 24 5.4 8.0
2014-Nov-22 08:20 140 23 5.4 8.0
2014-Nov-22 07:50 150 20 5.4 8.0
2014-Nov-22 07:20 160 20 gusting 31 5.4 8.0 Light rain showers.
2014-Nov-22 06:50 150 22 5.4 8.0
2014-Nov-22 06:20 140 17 5.4 8.0 Light rain showers.
2014-Nov-22 05:50 140 15 5.4 8.0
2014-Nov-22 05:20 140 18 5.4 8.0 Light rain.
2014-Nov-22 04:50 150 20 5.4 8.0
2014-Nov-22 04:20 140 18 5.4 8.0
2014-Nov-22 03:50 150 18 5.4 8.0
2014-Nov-22 03:20 140 16 5.4 8.0
2014-Nov-22 02:50 140 14 5.4 8.0
2014-Nov-22 02:20 140 15 5.4 8.0
2014-Nov-22 01:50 150 14 5.4 8.0
2014-Nov-22 01:20 160 13 5.4 8.0
2014-Nov-22 00:50 140 12 5.4 7.0
2014-Nov-22 00:20 150 12 5.4 7.0
2014-Nov-21 23:50 140 13 5.4 7.0
2014-Nov-21 23:20 150 12 5.4 7.0
2014-Nov-21 22:50 140 12 5.4 7.0
2014-Nov-21 22:20 150 15 5.4 7.0
2014-Nov-21 21:50 150 14 5.4 7.0
2014-Nov-21 21:20 150 14 5.4 7.0
2014-Nov-21 20:50 160 9 5.4 7.0
2014-Nov-21 20:20 150 10 5.4 7.0
2014-Nov-21 19:50 130 9 5.4 7.0
2014-Nov-21 19:20 140 11 5.4 7.0
2014-Nov-21 18:50 120 7 5.4 8.0
2014-Nov-21 18:20 150 6 5.4 7.0
2014-Nov-21 17:50 140 7 5.4 7.0
2014-Nov-21 17:20 140 6 5.4 7.0
2014-Nov-21 16:50 130 3 5.4 7.0
2014-Nov-21 16:20 120 3 5.4 7.0
2014-Nov-21 15:50 100 2 5.4 7.0
2014-Nov-21 15:20 5.4 7.0
2014-Nov-21 14:50 140 4 5.4 7.0
2014-Nov-21 14:20 150 6 5.4 7.0 Light rain showers.
2014-Nov-21 13:50 120 2 5.4 7.0
2014-Nov-21 13:20 5.4 7.0 Light rain showers.
2014-Nov-21 12:50 5.4 7.0
2014-Nov-21 12:20 030 6 5.4 7.0 Light rain.
2014-Nov-21 11:50 050 6 4.9 8.0 Light drizzle.
2014-Nov-21 11:20 5.4 7.0
2014-Nov-21 10:50 080 3 5.4 8.0 Light rain showers.
2014-Nov-21 10:20 040 7 5.4 8.0 Light rain.
2014-Nov-21 09:50 020 9 5.4 8.0
2014-Nov-21 09:20 350 6 5.4 8.0
2014-Nov-21 08:50 330 7 5.4 8.0
2014-Nov-21 08:20 340 5 5.4 8.0
2014-Nov-21 07:50 320 4 5.4 8.0
2014-Nov-21 07:20 310 2 5.4 8.0
2014-Nov-21 06:50 350 2 5.4 8.0
2014-Nov-21 06:20 5.4 8.0 Light rain showers.
2014-Nov-21 05:50 150 2 5.4 8.0
2014-Nov-21 05:20 5.4 8.0
2014-Nov-21 04:50 130 5 5.4 8.0
2014-Nov-21 04:20 130 5 5.4 8.0 Light rain showers.